Regional Weather Roundup
Issued by NWS Grand Forks, ND

Home | Current Version | Previous Version | Text Only | Print | Product List | Glossary On
Versions: 1 2 3 4 5 6 7 8 9 10 11 12 13 14 15 16 17 18 19 20 21 22 23 24 25 26 27 28 29 30 31 32 33 34 35 36 37 38 39 40 41 42 43 44 45 46 47 48 49 50
000
ASUS43 KFGF 221531
RWRFGF
PRAIRIE TO PINES  WEATHER ROUNDUP
NATIONAL WEATHER SERVICE EASTERN NORTH DAKOTA/GRAND FORKS ND
1000 AM CDT FRI AUG 22 2014

 **SATELLITE DATA USED TO AUGMENT SKY COVER AT AUTOMATED STATIONS**
 *****  WEATHER ACROSS EASTERN NORTH DAKOTA  *****

CITY           SKY/WX    TMP DP  RH WIND       PRES   REMARKS
GRAND FORKS    CLOUDY    66  64  93 N16       29.98R
GRAND FRKS AFB CLOUDY    66  66 100 N12       30.00S
GRAND FRKS NWS   N/A     61 N/A N/A NW12        N/A
DEVILS LAKE    CLOUDY    64  57  77 N10       30.02S
FARGO          CLOUDY    70  68  93 N8        29.97R
WAHPETON ARPT  CLOUDY    68  66  94 NW5       29.99R
$$

 ***** WEATHER ACROSS CENTRAL AND WESTERN NORTH DAKOTA  *****

CITY           SKY/WX    TMP DP  RH WIND       PRES   REMARKS
BISMARCK       CLOUDY    70  66  87 SE3       30.05S
MINOT          LGT RAIN  60  58  92 N13       30.07R FOG
JAMESTOWN      CLOUDY    68  65  90 N8        30.00F
MINOT AFB      CLOUDY    59  59 100 NE15      30.07S FOG
GARRISON         N/A     62  61  96 NE8       30.06R
WILLISTON      PTSUNNY   64  55  72 NE12      30.12R
DICKINSON      CLOUDY    65  61  87 N5        30.06S
HETTINGER      CLOUDY    64  59  83 CALM      30.08R
$$

 *****  OTHER AIRPORT OBSERVATIONS IN OUR AREA  *****

CITY           SKY/WX    TMP DP  RH WIND       PRES   REMARKS
WALHALLA         N/A     64  64 100 NW14      30.03S
GRAFTON AIRPOR CLOUDY    64  64 100 N15       30.00S
VALLEY CITY AR CLOUDY    68  68 100 NE9       30.00S
CANDO          CLOUDY    63  59  88 N13       30.06R
CAVALIER APRT  CLOUDY    64  63  94 N9        30.02R
GWINNER        CLOUDY    70  70 100 NE8       30.01R
SHEYENNE NWR     N/A     69  69  99 N3        29.95S
ROLLA          CLOUDY    59  59 100 N13       30.09R
 ***** THE ABOVE OBSERVATIONS ARE NON NWS ARE NOT QUALITY
       CONTROLLED AND MAY MIS-REPORT RAIN FOR SNOW...
$$

  *****  WEATHER ACROSS NORTHERN MINNESOTA  *****

CITY           SKY/WX    TMP DP  RH WIND       PRES   REMARKS
FLAG ISLAND    CLOUDY    68  64  88 E3        29.98S
WARROAD        CLOUDY    70  64  83 E6        29.98F
ROSEAU         LGT RAIN  70  64  83 E6        29.98S
HALLOCK        CLOUDY    64  63  94 N10       29.99S FOG
THF RVR FALLS  CLOUDY    68  66  94 NW7       29.97S
BAUDETTE       CLOUDY    68  63  84 E3        29.99R
WASKISH        CLOUDY    68  66  94 CALM      29.99R
CROOKSTON      CLOUDY    68  66  94 N10       29.98R
$$
  *****  WEATHER ACROSS CENTRAL AND WEST MINNESOTA  *****

CITY           SKY/WX    TMP DP  RH WIND       PRES   REMARKS
FOSSTON        CLOUDY    70  68  94 CALM      29.98R
BEMIDJI        CLOUDY    70  65  83 CALM      29.99R
PARK RAPIDS    CLOUDY    71  66  84 W5        29.99R
ELBOW LAKE     CLOUDY    74  70  86 NW5       29.98R
WADENA         CLOUDY    70  66  88 NE5       29.98S
DETROIT LAKES  PTSUNNY   73  68  83 W3        29.99S
MOORHEAD       CLOUDY    70  70 100 NW5       29.99R FOG
FERGUS FALLS   CLOUDY    72  70  94 W5        29.98R
MORRIS MN      SUNNY     75  72  88 CALM      29.96S
STAPLES        CLOUDY    66  64  94 CALM      29.98R
$$
  *****  WEATHER ELSEWHERE ACROSS MINNESOTA  *****

CITY           SKY/WX    TMP DP  RH WIND       PRES   REMARKS
DULUTH         FOG       63  61  93 E6        29.98R VSB 1/4
INTRNTL FALLS  CLOUDY    68  63  84 NE6       29.99S
ELY            CLOUDY    64  63  94 CALM      29.99S FOG
CLOQUET        CLOUDY    63  61  94 CALM      29.99R FOG
WHEATON        CLOUDY    66  66 100 NE3       30.00R FOG
BRAINERD       CLOUDY    67  65  93 N7        29.98R
HIBBING        CLOUDY    69  62  78 CALM      29.99R
ALEXANDRIA     MOSUNNY   75  67  76 CALM      29.98S
SAINT CLOUD    CLOUDY    72  67  84 N6        29.96R
MINNEAPOLIS    CLOUDY    71  67  87 N8        29.95R
$$

  *****  WEATHER ACROSS SOUTH DAKOTA  *****

CITY           SKY/WX    TMP DP  RH WIND       PRES   REMARKS
SIOUX FALLS    MOSUNNY   77  71  82 NE10      29.97R
BROOKINGS      NOT AVBL
WATERTOWN      SUNNY     74  68  81 N6        29.98S
HURON          SUNNY     75  67  76 N7        29.98R
SISSETON         N/A     70  69  97 N8        29.97R
ABERDEEN       CLOUDY    67  66  97 N5        30.01R
MITCHELL       MOSUNNY   71  69  93 N6        29.98S
PIERRE         CLOUDY    71  66  84 NE13      29.99S
MOBRIDGE       PTSUNNY   67  64  90 NW3       29.99F
RAPID CITY     CLOUDY    63  61  93 N6        30.08F
$$

  *****  SOME WEATHER IN NEARBY STATES *****

CITY           SKY/WX    TMP DP  RH WIND       PRES   REMARKS
GLASGOW MT     LGT RAIN  59  58  96 E10       30.10S FOG
GREAT FALLS MT LGT RAIN  52  52 100 NE10      30.12S
CHEYENNE WY    CLOUDY    61  54  77 SW3       30.22F
SCOTTSBLUFF NE CLOUDY    65  56  72 NW6       30.11S
OMAHA NE       PTSUNNY   80  72  76 CALM      29.92R
DES MOINES IA  PTSUNNY   81  70  69 E3        29.93R
DAVENPORT IA   CLOUDY    71  69  93 S7        29.96R
CHICAGO IL     CLOUDY    78  74  87 SW5       29.94R
EAU CLAIRE WI  CLOUDY    74  73  97 W5        29.91R
LA CROSSE WI   CLOUDY    77  72  84 VRB3      29.92R HAZE
$$

  *****  SOME NATIONAL WEATHER *****

CITY           SKY/WX    TMP DP  RH WIND       PRES   REMARKS
LA GUARDIA NY  CLOUDY    72  60  66 NE10      30.05S
RALEIGH NC     PTSUNNY   85  71  63 VRB5      30.03F HX  90
ATLANTA GA     MOSUNNY   87  73  62 NW8       30.14S HX  94
NEW ORLEANS LA MOSUNNY   87  74  64 CALM      30.12S HX  95
OKLAHOMA CITY  SUNNY     87  69  54 SW20G26   30.00S HX  91
ALBUQUERQUE NM LGT RAIN  62  57  83 S5        30.26R
SALT LAKE CITY CLOUDY    71  47  42 S14       29.99S
LOS ANGELES CA PTSUNNY   69  63  81 W8        29.96S
BOISE ID       MOSUNNY   65  48  54 CALM      29.93R
SEATTLE WA     MOSUNNY   60  51  72 E6        30.06R
$$

*** WEATHER ACROSS MANITOBA...SASKATCHEWAN AND ONTARIO ***
                ***ONTARIO***

CITY           SKY/WX    TMP DP  RH WIND       PRES   REMARKS
GERALDTON      MOSUNNY   70  64  83 CALM      30.03
THUNDER BAY    CLOUDY    63  61  94 E8        30.01R
SIOUX LOOKOUT  PTSUNNY   68  61  77 S8        30.02S
TORONTO        PTSUNNY   70  64  83 VRB2      30.02S
BIG TROUT LK   PTSUNNY   68  61  77 S3        29.99S
PICKLE LAKE    PTSUNNY   68  61  77 VRB2      30.03S
DRYDEN         CLOUDY    66  63  88 SE6       30.02S
KENORA         CLOUDY    66  63  88 SE3       30.02R
$$
                *** MANITOBA***

CITY           SKY/WX    TMP DP  RH WIND       PRES   REMARKS
BRANDON        CLOUDY    63  57  82 N12       30.10S
DAUPHIN        LGT RAIN  59  59 100 N8        30.13R FOG
ISLAND LAKE    LGT RAIN  50  50 100 N8        30.09R FOG
PILOT MOUND      N/A     61  57  88 N9          N/A
THE PAS        CLOUDY    59  52  77 NE9       30.20R
THOMPSON       CLOUDY    52  50  93 N9        30.22R
WINNIPEG       DRIZZLE   64  61  88 N10       30.02S
LYNN LAKE      CLOUDY    50  48  93 MISG      30.28R
CHURCHILL      PTSUNNY   48  43  81 N18G25    30.22R
GILLAM         CLOUDY    48  48 100 N16       30.17R
$$
                ***SASKATCHEWAN***

CITY           SKY/WX    TMP DP  RH WIND       PRES   REMARKS
ESTEVAN        CLOUDY    61  55  82 NE13      30.14
KINDERSLEY     CLOUDY    50  46  87 NE10      30.27R
LLOYDMINSTER   PTSUNNY   52  43  71 NE6       30.32R
PRINCE ALBERT  PTSUNNY   55  50  82 N7        30.26R
REGINA         PTSUNNY   59  55  88 NE9       30.18S
YORKTON        PTSUNNY   59  54  82 N9        30.18R
N. BATTLEFORD  MOSUNNY   52  48  87 N6        30.32R
LA RONGE       PTSUNNY   55  52  88 N7        30.28R
SASKATOON      PTSUNNY   57  45  62 NE14      30.27S
SWIFT CURRENT  LGT RAIN  52  52 100 NE13      30.20S
$$
NOTE: THESE ARE AUTOMATED STATIONS WITH LIMITED QUALITY CONTROL
      "FAIR" INDICATES FEW OR NO CLOUDS BELOW 12,000 FEET WITH NO
      SIGNIFICANT WEATHER AND/OR OBSTRUCTIONS TO VISIBILITY.
      SKY/WX - SKY CONDITION AND SIGNIFICANT WEATHER.
      TMP - AIR TEMPERATURE.    DP   - DEWPOINT TEMPERATURE.
      RH  - RELATIVE HUMIDITY.  PRES - PRESSURE.
      HX  - HEAT INDEX.         WCI  - WIND CHILL INDEX.
$


USA.gov is the U.S. government's official web portal to all federal, state and local government web resources and services.